FW2402 Weather Reports


Display with metric or nautical units.
time (UTC)temp
F
wind
direction
speed
MPH
gust
MPH
rain 1hr
in
rain 24hr
in
rain mn
in
humidity
%
barometer
mb
20260508225022 88 256 9.0 16.0 0.00 0.00 0.00 56 1010.7
20260508224541 89 267 11.0 16.0 0.00 0.00 0.00 53 1010.7
20260508224017 89 267 7.0 16.0 0.00 0.00 0.00 54 1010.6
20260508223516 89 291 10.0 16.0 0.00 0.00 0.00 53 1010.4
20260508223039 89 290 8.0 14.0 0.00 0.00 0.00 54 1010.4
20260508222517 90 250 7.0 16.0 0.00 0.00 0.00 53 1010.3
20260508222016 90 288 10.0 16.0 0.00 0.00 0.00 54 1010.4
20260508221539 90 273 7.0 13.0 0.00 0.00 0.00 53 1010.3
20260508221016 91 281 8.0 12.0 0.00 0.00 0.00 52 1010.2
20260508220516 91 259 5.0 12.0 0.00 0.00 0.00 52 1010.2
20260508220045 91 278 6.0 13.0 0.00 0.00 0.00 52 1010.1
20260508215520 91 301 7.0 13.0 0.00 0.00 0.00 51 1010.1
20260508215020 91 292 7.0 11.0 0.00 0.00 0.00 50 1010.0
20260508214532 91 283 6.0 10.0 0.00 0.00 0.00 51 1009.9
20260508214018 92 307 6.0 13.0 0.00 0.00 0.00 52 1010.0
20260508213519 91 243 7.0 13.0 0.00 0.00 0.00 51 1010.0
20260508213046 92 273 9.0 12.0 0.00 0.00 0.00 49 1009.9
20260508212519 93 174 3.0 13.0 0.00 0.00 0.00 47 1010.0
20260508212021 92 246 7.0 14.0 0.00 0.00 0.00 48 1010.0
20260508211536 93 266 6.0 14.0 0.00 0.00 0.00 48 1010.0
20260508211022 92 283 9.0 13.0 0.00 0.00 0.00 48 1009.9
20260508210520 93 252 5.0 15.0 0.00 0.00 0.00 48 1009.9
20260508210036 93 264 9.0 15.0 0.00 0.00 0.00 47 1010.2
20260508205519 93 263 3.0 12.0 0.00 0.00 0.00 45 1010.0
20260508205018 93 280 5.0 14.0 0.00 0.00 0.00 46 1010.1
20260508204537 93 255 10.0 14.0 0.00 0.00 0.00 46 1010.0
20260508204018 94 244 7.0 14.0 0.00 0.00 0.00 47 1010.1
20260508203519 94 272 7.0 14.0 0.00 0.00 0.00 46 1010.2
20260508203046 94 247 3.0 14.0 0.00 0.00 0.00 45 1010.4
20260508202521 94 252 8.0 13.0 0.00 0.00 0.00 45 1010.3
20260508202016 94 246 6.0 13.0 0.00 0.00 0.00 45 1010.4
20260508201541 92 295 2.0 8.0 0.00 0.00 0.00 47 1010.6
20260508201020 91 272 2.0 8.0 0.00 0.00 0.00 48 1010.6
20260508200520 93 288 5.0 12.0 0.00 0.00 0.00 45 1010.8
20260508200050 92 272 4.0 13.0 0.00 0.00 0.00 45 1011.0
20260508195519 94 273 8.0 15.0 0.00 0.00 0.00 44 1011.0
20260508195019 94 242 9.0 16.0 0.00 0.00 0.00 45 1011.0
20260508194540 93 284 4.0 16.0 0.00 0.00 0.00 45 1011.1
20260508194019 94 282 7.0 15.0 0.00 0.00 0.00 46 1011.1
20260508193519 93 278 2.0 12.0 0.00 0.00 0.00 45 1011.1
20260508193037 92 249 5.0 12.0 0.00 0.00 0.00 44 1011.2
20260508192519 94 293 5.0 12.0 0.00 0.00 0.00 42 1011.2
20260508192017 94 268 3.0 11.0 0.00 0.00 0.00 42 1011.5
20260508191536 93 269 3.0 12.0 0.00 0.00 0.00 45 1011.5
20260508191018 93 244 7.0 12.0 0.00 0.00 0.00 45 1011.6
20260508190518 93 0 6.0 11.0 0.00 0.00 0.00 46 1011.6
20260508190042 92 243 0.0 6.0 0.00 0.00 0.00 47 1011.7
20260508185518 93 234 1.0 12.0 0.00 0.00 0.00 46 1011.9
20260508185018 93 290 2.0 12.0 0.00 0.00 0.00 46 1012.0
20260508184535 93 341 6.0 12.0 0.00 0.00 0.00 48 1012.1
20260508184018 93 260 3.0 8.0 0.00 0.00 0.00 47 1012.2
20260508183517 93 252 2.0 10.0 0.00 0.00 0.00 46 1012.3
20260508183039 92 0 5.0 10.0 0.00 0.00 0.00 48 1012.4
20260508182518 91 259 4.0 10.0 0.00 0.00 0.00 50 1012.5
20260508182024 90 254 6.0 10.0 0.00 0.00 0.00 52 1012.7
20260508181604 91 0 0.0 9.0 0.00 0.00 0.00 50 1012.8
20260508181019 92 281 4.0 10.0 0.00 0.00 0.00 48 1012.8
20260508180518 93 296 0.0 14.0 0.00 0.00 0.00 50 1012.9
20260508180041 93 255 8.0 14.0 0.00 0.00 0.00 48 1012.9
20260508175517 92 273 4.0 12.0 0.00 0.00 0.00 50 1013.0
20260508175017 92 0 3.0 8.0 0.00 0.00 0.00 51 1013.0
20260508174538 89 282 4.0 9.0 0.00 0.00 0.00 55 1013.0
20260508174018 88 247 3.0 9.0 0.00 0.00 0.00 55 1013.1
20260508173518 89 0 2.0 7.0 0.00 0.00 0.00 55 1013.2
20260508173035 91 46 1.0 10.0 0.00 0.00 0.00 53 1013.2
20260508172517 91 136 4.0 12.0 0.00 0.00 0.00 53 1013.3
20260508172022 89 246 5.0 12.0 0.00 0.00 0.00 55 1013.4
20260508171531 91 224 4.0 11.0 0.00 0.00 0.00 52 1013.4
20260508171017 91 106 1.0 13.0 0.00 0.00 0.00 51 1013.5
20260508170522 90 0 5.0 13.0 0.00 0.00 0.00 53 1013.6
20260508170041 90 232 3.0 12.0 0.00 0.00 0.00 56 1013.7
20260508165516 87 265 5.0 12.0 0.00 0.00 0.00 59 1013.8
20260508165019 89 246 4.0 12.0 0.00 0.00 0.00 57 1013.9
20260508164541 89 239 5.0 13.0 0.00 0.00 0.00 55 1013.9
20260508164020 89 260 6.0 13.0 0.00 0.00 0.00 55 1014.0
20260508163516 88 229 5.0 12.0 0.00 0.00 0.00 57 1014.0
20260508163037 89 225 1.0 11.0 0.00 0.00 0.00 58 1014.1
20260508162520 88 285 5.0 11.0 0.00 0.00 0.00 61 1014.1
20260508162020 89 253 3.0 9.0 0.00 0.00 0.00 61 1014.3
20260508161537 89 259 2.0 11.0 0.00 0.00 0.00 62 1014.3
20260508161020 88 286 7.0 11.0 0.00 0.00 0.00 63 1014.4
20260508160516 87 298 4.0 10.0 0.00 0.00 0.00 64 1014.4
20260508160039 86 252 4.0 11.0 0.00 0.00 0.00 64 1014.5
20260508155517 87 283 4.0 11.0 0.00 0.00 0.00 63 1014.6
20260508155020 88 348 2.0 10.0 0.00 0.00 0.00 65 1014.7
20260508154537 86 295 4.0 10.0 0.00 0.00 0.00 67 1014.8
20260508154021 85 268 3.0 11.0 0.00 0.00 0.00 70 1014.9
20260508153521 83 321 5.0 12.0 0.00 0.00 0.00 71 1014.9
20260508153041 83 265 7.0 12.0 0.00 0.00 0.00 71 1014.9
20260508152521 83 258 6.0 12.0 0.00 0.00 0.00 70 1015.0
20260508152016 84 263 4.0 10.0 0.00 0.00 0.00 68 1014.9
20260508151542 84 271 1.0 12.0 0.00 0.00 0.00 68 1014.9
20260508151020 86 265 5.0 12.0 0.00 0.00 0.00 66 1014.9
20260508150523 85 255 5.0 12.0 0.00 0.00 0.00 68 1014.9
20260508150037 84 247 2.0 9.0 0.00 0.00 0.00 70 1015.0
20260508145520 85 263 3.0 9.0 0.00 0.00 0.00 70 1015.0
20260508145021 84 229 5.0 9.0 0.00 0.00 0.00 72 1015.0
20260508144537 82 300 3.0 9.0 0.00 0.00 0.00 75 1015.0
20260508144016 81 259 1.0 9.0 0.00 0.00 0.00 75 1015.0
20260508143520 82 275 4.0 9.0 0.00 0.00 0.00 75 1015.0
20260508143037 82 271 5.0 9.0 0.00 0.00 0.00 74 1015.0
20260508142520 83 258 4.0 10.0 0.00 0.00 0.00 75 1014.9
20260508142017 81 261 4.0 10.0 0.00 0.00 0.00 78 1014.9
20260508141546 81 259 6.0 10.0 0.00 0.00 0.00 77 1015.0
20260508141017 81 277 6.0 10.0 0.00 0.00 0.00 78 1015.0
20260508140516 82 277 2.0 8.0 0.00 0.00 0.00 79 1015.0
20260508140052 81 274 1.0 15.0 0.00 0.00 0.00 80 1014.9
20260508135524 81 277 5.0 15.0 0.00 0.00 0.00 80 1014.9
20260508135018 81 256 3.0 8.0 0.00 0.00 0.00 82 1014.9
20260508134538 80 317 3.0 8.0 0.00 0.00 0.00 83 1015.0
20260508134017 79 263 4.0 13.0 0.00 0.00 0.00 84 1015.0
20260508133517 79 282 5.0 13.0 0.00 0.00 0.00 84 1015.1
20260508133111 78 278 3.0 12.0 0.00 0.00 0.00 86 1015.2
20260508132520 78 295 2.0 6.0 0.00 0.00 0.00 87 1015.2
20260508132017 78 279 3.0 7.0 0.00 0.00 0.00 88 1015.1
20260508131538 77 247 3.0 7.0 0.00 0.00 0.00 89 1015.1
20260508131018 77 304 2.0 6.0 0.00 0.00 0.00 89 1015.2
20260508130517 77 270 1.0 3.0 0.00 0.00 0.00 90 1015.1
20260508130035 76 270 0.0 3.0 0.00 0.00 0.00 91 1015.0
20260508125517 76 270 0.0 3.0 0.00 0.00 0.00 91 1015.0
20260508125017 76 271 1.0 3.0 0.00 0.00 0.00 91 1015.0
20260508124531 76 244 0.0 3.0 0.00 0.00 0.00 92 1015.1
20260508124017 75 0 0.0 3.0 0.00 0.00 0.00 93 1015.0
20260508123517 75 254 1.0 3.0 0.00 0.00 0.00 93 1015.0
20260508123039 74 264 1.0 2.0 0.00 0.00 0.00 93 1014.9
20260508122516 74 0 0.0 1.0 0.00 0.00 0.00 94 1014.9
20260508122017 74 0 0.0 2.0 0.00 0.00 0.00 94 1014.7
20260508121540 73 0 0.0 2.0 0.00 0.00 0.00 94 1014.8
20260508121018 73 0 0.0 1.0 0.00 0.00 0.00 95 1014.7
20260508120517 73 0 0.0 1.0 0.00 0.00 0.00 95 1014.6
20260508120042 73 0 0.0 1.0 0.00 0.00 0.00 95 1014.4
20260508115518 72 0 0.0 3.0 0.00 0.00 0.00 95 1014.5
20260508115018 72 0 0.0 3.0 0.00 0.00 0.00 95 1014.4
20260508114537 72 265 0.0 2.0 0.00 0.00 0.00 95 1014.3
20260508114018 71 0 0.0 1.0 0.00 0.00 0.00 95 1014.4
20260508113520 71 0 0.0 2.0 0.00 0.00 0.00 95 1014.2
20260508113035 71 0 0.0 2.0 0.00 0.00 0.00 95 1014.0
20260508112516 71 0 0.0 0.0 0.00 0.00 0.00 96 1013.9
20260508112017 70 0 0.0 0.0 0.00 0.00 0.00 95 1013.8
20260508111552 70 0 0.0 0.0 0.00 0.00 0.00 95 1013.7
20260508111017 70 0 0.0 0.0 0.00 0.00 0.00 96 1013.7
20260508110522 70 0 0.0 0.0 0.00 0.00 0.00 95 1013.8
20260508110056 70 0 0.0 0.0 0.00 0.00 0.00 95 1013.6
20260508105517 70 0 0.0 0.0 0.00 0.00 0.00 95 1013.5
20260508105017 69 0 0.0 0.0 0.00 0.00 0.00 96 1013.5
20260508104538 69 0 0.0 0.0 0.00 0.00 0.00 95 1013.4
20260508104017 69 0 0.0 0.0 0.00 0.00 0.00 95 1013.4
20260508103516 69 0 0.0 0.0 0.00 0.00 0.00 95 1013.4
20260508103050 69 0 0.0 0.0 0.00 0.00 0.00 95 1013.1
20260508102517 69 0 0.0 0.0 0.00 0.00 0.00 95 1013.0
20260508102017 69 0 0.0 0.0 0.00 0.00 0.00 95 1012.9
20260508101541 69 0 0.0 0.0 0.00 0.00 0.00 95 1013.0
20260508101020 69 0 0.0 0.0 0.00 0.00 0.00 95 1012.8
20260508100517 69 0 0.0 0.0 0.00 0.00 0.00 95 1012.7
20260508100035 69 0 0.0 0.0 0.00 0.00 0.00 95 1012.8
20260508095517 69 0 0.0 0.0 0.00 0.00 0.00 95 1012.8
20260508095016 69 0 0.0 0.0 0.00 0.00 0.00 95 1012.7
20260508094539 69 0 0.0 0.0 0.00 0.00 0.00 95 1012.7
20260508094018 69 0 0.0 0.0 0.00 0.00 0.00 95 1012.7
20260508093517 69 0 0.0 0.0 0.00 0.00 0.00 95 1012.7
20260508093041 69 0 0.0 0.0 0.00 0.00 0.00 95 1012.6
20260508092516 69 0 0.0 0.0 0.00 0.00 0.00 95 1012.6
20260508092016 69 0 0.0 0.0 0.00 0.00 0.00 95 1012.6
20260508091540 69 0 0.0 0.0 0.00 0.00 0.00 95 1012.7
20260508091016 69 0 0.0 0.0 0.00 0.00 0.00 95 1012.6
20260508090518 69 0 0.0 0.0 0.00 0.00 0.00 95 1012.6
20260508090039 69 0 0.0 0.0 0.00 0.00 0.00 95 1012.6
20260508085517 69 0 0.0 0.0 0.00 0.00 0.00 95 1012.7
20260508085017 69 0 0.0 0.0 0.00 0.00 0.00 95 1012.6
20260508084535 70 0 0.0 0.0 0.00 0.00 0.00 95 1012.7
20260508084020 69 0 0.0 0.0 0.00 0.00 0.00 95 1012.7
20260508083518 70 0 0.0 0.0 0.00 0.00 0.00 95 1012.7
20260508083037 70 0 0.0 0.0 0.00 0.00 0.00 95 1012.7
20260508082518 70 0 0.0 0.0 0.00 0.00 0.00 95 1012.7
20260508082017 69 0 0.0 0.0 0.00 0.00 0.00 95 1012.8
20260508081543 69 0 0.0 0.0 0.00 0.00 0.00 95 1012.7
20260508081016 69 0 0.0 0.0 0.00 0.00 0.00 95 1012.6
20260508080516 70 0 0.0 0.0 0.00 0.00 0.00 95 1012.7
20260508080040 69 0 0.0 0.0 0.00 0.00 0.00 95 1012.7
20260508075517 69 0 0.0 0.0 0.00 0.00 0.00 95 1012.6
20260508075016 69 0 0.0 0.0 0.00 0.00 0.00 95 1012.7
20260508074539 69 0 0.0 0.0 0.00 0.00 0.00 95 1012.7
20260508074016 69 0 0.0 0.0 0.00 0.00 0.00 94 1012.7
20260508073516 69 0 0.0 0.0 0.00 0.00 0.00 95 1012.7
20260508073038 69 0 0.0 0.0 0.00 0.00 0.00 94 1012.9
20260508072516 69 0 0.0 0.0 0.00 0.00 0.00 94 1012.7
20260508072016 70 0 0.0 0.0 0.00 0.00 0.00 94 1012.8
20260508071536 69 0 0.0 0.0 0.00 0.00 0.00 94 1012.8
20260508071022 69 0 0.0 0.0 0.00 0.00 0.00 94 1012.9
20260508070517 69 0 0.0 0.0 0.00 0.00 0.00 94 1012.9
20260508070036 68 0 0.0 0.0 0.00 0.00 0.00 94 1012.8
20260508065516 68 0 0.0 0.0 0.00 0.00 0.00 93 1012.9
20260508065016 68 0 0.0 0.0 0.00 0.00 0.00 93 1012.9
20260508064551 69 0 0.0 0.0 0.00 0.00 0.00 94 1013.0
20260508064017 70 0 0.0 0.0 0.00 0.00 0.00 94 1013.1
20260508063517 70 0 0.0 0.0 0.00 0.00 0.00 94 1013.1
20260508063041 69 0 0.0 0.0 0.00 0.00 0.00 94 1013.1
20260508062516 69 0 0.0 0.0 0.00 0.00 0.00 93 1013.3
20260508062016 69 0 0.0 0.0 0.00 0.00 0.00 93 1013.2
20260508061537 69 0 0.0 0.0 0.00 0.00 0.00 93 1013.3
20260508061023 69 0 0.0 0.0 0.00 0.00 0.00 93 1013.4
20260508060517 69 0 0.0 0.0 0.00 0.00 0.00 93 1013.4
20260508060038 70 0 0.0 0.0 0.00 0.00 0.00 93 1013.4
20260508055516 70 0 0.0 0.0 0.00 0.00 0.00 93 1013.4
20260508055020 70 0 0.0 0.0 0.00 0.00 0.00 93 1013.5
20260508054537 70 0 0.0 0.0 0.00 0.00 0.00 93 1013.5
20260508054021 70 0 0.0 0.0 0.00 0.00 0.00 93 1013.5
20260508053520 71 0 0.0 0.0 0.00 0.00 0.00 93 1013.5
20260508053036 71 0 0.0 0.0 0.00 0.00 0.00 92 1013.6
20260508052520 71 0 0.0 0.0 0.00 0.00 0.00 92 1013.6
20260508052016 71 0 0.0 0.0 0.00 0.00 0.00 92 1013.5
20260508051535 71 0 0.0 0.0 0.00 0.00 0.00 92 1013.6
20260508051020 71 0 0.0 0.0 0.00 0.00 0.00 92 1013.5
20260508050517 71 0 0.0 0.0 0.00 0.00 0.00 92 1013.6
20260508050039 71 0 0.0 0.0 0.00 0.00 0.00 92 1013.6
20260508045516 71 0 0.0 0.0 0.00 0.00 0.00 92 1013.6
20260508045016 71 0 0.0 0.0 0.00 0.00 0.00 92 1013.7
20260508044538 71 0 0.0 0.0 0.00 0.00 0.00 92 1013.6
20260508044017 71 0 0.0 0.0 0.00 0.00 0.00 91 1013.7
20260508043516 71 0 0.0 0.0 0.00 0.00 0.00 91 1013.9
20260508043041 71 0 0.0 0.0 0.00 0.00 0.00 91 1013.8
20260508042516 71 0 0.0 0.0 0.00 0.00 0.00 91 1013.8
20260508042016 71 0 0.0 2.0 0.00 0.00 0.00 91 1013.9
20260508041537 71 0 0.0 2.0 0.00 0.00 0.00 90 1013.8
20260508041020 71 265 1.0 2.0 0.00 0.00 0.00 90 1013.8
20260508040521 71 0 0.0 0.0 0.00 0.00 0.00 90 1013.8
20260508040040 72 0 0.0 2.0 0.00 0.00 0.00 90 1013.8
20260508035521 72 0 0.0 2.0 0.00 0.00 0.00 90 1013.8
20260508035021 72 0 1.0 2.0 0.00 0.00 0.00 90 1013.9
20260508034534 72 265 1.0 2.0 0.00 0.00 0.00 89 1013.8
20260508034019 72 0 0.0 4.0 0.00 0.00 0.00 89 1013.9
20260508033516 72 265 1.0 4.0 0.00 0.00 0.00 89 1013.9
20260508033041 72 252 1.0 4.0 0.00 0.00 0.00 89 1013.8
20260508032522 72 267 2.0 4.0 0.00 0.00 0.00 89 1013.9
20260508032017 72 270 2.0 3.0 0.00 0.00 0.00 88 1013.8
20260508031538 72 270 2.0 3.0 0.00 0.00 0.00 88 1013.7
20260508031020 73 273 1.0 3.0 0.00 0.00 0.00 87 1013.6
20260508030516 73 273 2.0 4.0 0.00 0.00 0.00 87 1013.6
20260508030039 73 263 1.0 4.0 0.00 0.00 0.00 87 1013.7
20260508025521 73 246 1.0 4.0 0.00 0.00 0.00 87 1013.7
20260508025019 73 257 3.0 4.0 0.00 0.00 0.00 87 1013.6
20260508024544 73 273 3.0 4.0 0.00 0.00 0.00 86 1013.6
20260508024024 73 269 2.0 6.0 0.00 0.00 0.00 85 1013.6
20260508023520 73 261 3.0 6.0 0.00 0.00 0.00 85 1013.5
20260508023039 74 259 3.0 6.0 0.00 0.00 0.00 84 1013.5
20260508022517 74 267 3.0 6.0 0.00 0.00 0.00 84 1013.6
20260508022019 74 269 3.0 7.0 0.00 0.00 0.00 83 1013.5
20260508021543 74 263 3.0 8.0 0.00 0.00 0.00 83 1013.6
20260508021023 75 273 4.0 8.0 0.00 0.00 0.00 82 1013.5
20260508020516 75 281 5.0 8.0 0.00 0.00 0.00 82 1013.5
20260508020038 75 277 5.0 8.0 0.00 0.00 0.00 81 1013.5
20260508015521 75 260 3.0 8.0 0.00 0.00 0.00 80 1013.5
20260508015016 75 234 2.0 9.0 0.00 0.00 0.00 79 1013.5
20260508014548 76 259 3.0 9.0 0.00 0.00 0.00 78 1013.5
20260508014021 76 263 6.0 10.0 0.00 0.00 0.00 78 1013.5
20260508013520 76 259 6.0 10.0 0.00 0.00 0.00 77 1013.5
20260508013043 76 270 6.0 10.0 0.00 0.00 0.00 76 1013.5
20260508012522 77 264 5.0 10.0 0.00 0.00 0.00 76 1013.4
20260508012020 77 268 5.0 9.0 0.00 0.00 0.00 75 1013.4
20260508011541 77 259 5.0 10.0 0.00 0.00 0.00 74 1013.4
20260508011020 77 278 6.0 10.0 0.00 0.00 0.00 74 1013.3
20260508010520 78 273 6.0 10.0 0.00 0.00 0.00 73 1013.3
20260508010034 78 256 4.0 8.0 0.00 0.00 0.00 72 1013.2
20260508005525 78 284 5.0 8.0 0.00 0.00 0.00 71 1013.2
20260508005022 78 287 4.0 8.0 0.00 0.00 0.00 70 1013.1
20260508004542 78 268 4.0 8.0 0.00 0.00 0.00 70 1013.0
20260508004019 79 261 4.0 9.0 0.00 0.00 0.00 68 1013.1
20260508003518 79 270 5.0 9.0 0.00 0.00 0.00 68 1013.1
20260508003056 79 242 4.0 8.0 0.00 0.00 0.00 67 1013.1
20260508002520 79 285 3.0 8.0 0.00 0.00 0.00 66 1013.1
20260508002022 80 278 5.0 8.0 0.00 0.00 0.00 66 1013.1
20260508001539 80 256 3.0 7.0 0.00 0.00 0.00 65 1013.2
20260508001020 80 273 2.0 10.0 0.00 0.00 0.00 64 1013.1
20260508000517 81 273 3.0 10.0 0.00 0.00 0.00 63 1013.0
20260508000042 81 304 5.0 9.0 0.00 0.00 0.00 62 1013.0
20260507235520 81 257 4.0 11.0 0.00 0.00 0.00 61 1012.9
20260507235019 82 275 6.0 12.0 0.00 0.00 0.00 60 1012.9
20260507234541 82 266 6.0 12.0 0.00 0.00 0.00 59 1012.9
20260507234019 82 279 7.0 12.0 0.00 0.00 0.00 58 1012.9
20260507233520 83 261 8.0 12.0 0.00 0.00 0.00 57 1012.8
20260507233038 83 254 7.0 11.0 0.00 0.00 0.00 58 1012.8
20260507232523 83 259 6.0 12.0 0.00 0.00 0.00 57 1012.8
20260507232020 84 265 5.0 12.0 0.00 0.00 0.00 56 1012.7
20260507231540 84 274 7.0 13.0 0.00 0.00 0.00 54 1012.8
20260507231023 84 245 7.0 14.0 0.00 0.00 0.00 53 1012.7
20260507230519 85 286 9.0 14.0 0.00 0.00 0.00 53 1012.8
20260507230042 85 256 10.0 15.0 0.00 0.00 0.00 52 1012.8
20260507225523 86 261 11.0 15.0 0.00 0.00 0.00 50 1012.7